[[{"header":{"parameterUnit":"m.s-1","parameterCategory":1,"la1":30.2992,"la2":30.254,"lo1":-89.0895,"lo2":-89.0443,"dy":0.0025,"dx":0.0025,"nx":19,"ny":19,"refTime":"2026-03-14T09:00:00:Z","depth":0,"parameterNumber":2,"parameterNumberName":"U-component_of_WINDS"},"data":[0,0,0,0.4406,0.4405,0.4336,0.4336,0.4267,0.4267,0,0,0,0,0,0,0,0,0,0,0,0.4438,0.4438,0.4406,0.4405,0.4336,0.4336,0.4268,0.4267,0,0,0,0,0,0,0,0,0,0,0,0.4438,0.4438,0.4438,0.4405,0.4336,0.4336,0.4268,0.4313,0,0,0,0,0,0,0,0,0,0,0.4376,0.4417,0.4438,0.4438,0.4404,0.4336,0.4336,0.4315,0.431,0.4307,0,0.4307,0,0.4286,0.4264,0.4264,0,0,0,0.4397,0.4421,0.4392,0.4438,0.4404,0.4336,0.4365,0.4312,0.4307,0.4301,0.4306,0.4303,0.4285,0.4263,0.4263,0.4274,0.4274,0,0,0.44,0.4432,0.4395,0.4389,0.44,0.4367,0.4363,0.4308,0.4316,0.4306,0.4301,0.4284,0.4263,0.4263,0.4273,0.4274,0,0,0,0.4417,0.4435,0.4407,0.4392,0.4378,0.4365,0.436,0.4318,0.4306,0.43,0.4283,0.4263,0.4262,0.4273,0.4274,0.4326,0,0,0,0.4419,0.4445,0.4409,0.4428,0.438,0.4347,0.4372,0.431,0.4303,0.4283,0.4263,0.4262,0.4272,0.4273,0.4324,0.4346,0,0,0,0.4439,0.4447,0.4441,0.443,0.4401,0.4347,0.4332,0.4308,0.4293,0.4263,0.4262,0.4272,0.4273,0.4321,0.4342,0.4358,0,0,0,0.4469,0.4488,0.4442,0.4457,0.4402,0.438,0.4332,0.4315,0.4295,0.4262,0.4272,0.4274,0.4321,0.434,0.4356,0.4377,0.4389,0,0,0.4511,0.4494,0.4501,0.4457,0.4452,0.4388,0.4391,0.4344,0.4312,0.4289,0.4289,0.4325,0.4342,0.4358,0.4445,0.4455,0,0,0,0.4525,0.453,0.4521,0.4505,0.4469,0.444,0.4389,0.4372,0.435,0.4306,0.4334,0.4343,0.4351,0.436,0.4368,0.4373,0.4279,0.4279,0.4279,0.4629,0.4588,0.4595,0.4546,0.4531,0.4478,0.4462,0.443,0.4393,0.44,0.4393,0.4451,0.4462,0.4468,0.4474,0.4401,0.4401,0.4401,0.4401,0.4686,0.4687,0.4637,0.4627,0.4584,0.4575,0.4526,0.4501,0.4487,0.4453,0.4458,0.4424,0.448,0.4483,0.4405,0.4404,0.4404,0.4403,0.4403,0.475,0.4743,0.4721,0.4693,0.4677,0.4626,0.4616,0.4576,0.454,0.4545,0.4533,0.4532,0.4526,0.4542,0.4542,0.4542,0.4543,0.4543,0.4543,0.4824,0.4798,0.4793,0.4758,0.4742,0.4717,0.4666,0.465,0.4622,0.4594,0.4594,0.4557,0.4493,0.4478,0.4546,0.4545,0.4545,0.4545,0.4544,0.4897,0.4874,0.4867,0.4852,0.4808,0.4794,0.4745,0.4716,0.4697,0.4693,0.4655,0.4614,0.4594,0.4588,0.4575,0.4663,0.4663,0.4663,0.4663,0.495,0.4937,0.4921,0.4899,0.4873,0.4828,0.4823,0.4784,0.474,0.4726,0.4707,0.4687,0.4682,0.4665,0.4657,0.4644,0.4748,0.4749,0.4749,0.4993,0.4975,0.4977,0.4934,0.4897,0.4866,0.486,0.4837,0.4783,0.4751,0.4714,0.471,0.4677,0.4668,0.4636,0.4623,0.4599,0,0]},{"header":{"parameterUnit":"m.s-1","parameterCategory":1,"la1":30.2992,"la2":30.254,"lo1":-89.0895,"lo2":-89.0443,"dy":0.0025,"dx":0.0025,"nx":19,"ny":19,"refTime":"2026-03-14T09:00:00:Z","depth":0,"parameterNumber":3,"parameterNumberName":"V-component_of_WINDS"},"data":[0,0,0,8.0454,8.046,8.0764,8.0766,8.1141,8.1144,0,0,0,0,0,0,0,0,0,0,0,8.0354,8.0356,8.0453,8.046,8.0764,8.0766,8.1141,8.1144,0,0,0,0,0,0,0,0,0,0,0,8.0353,8.0355,8.0358,8.0462,8.0764,8.0766,8.114,8.0915,0,0,0,0,0,0,0,0,0,0,8.0622,8.0521,8.0355,8.0358,8.0463,8.0764,8.0766,8.0905,8.0929,8.0997,0,8.1054,0,8.1105,8.1169,8.117,0,0,0,8.0468,8.05,8.0591,8.0359,8.0466,8.0763,8.0629,8.0919,8.0947,8.103,8.1059,8.1073,8.1111,8.1171,8.1173,8.1537,8.1538,0,0,8.0451,8.0404,8.0571,8.0608,8.0559,8.0619,8.0639,8.0936,8.0965,8.1061,8.1083,8.1117,8.1173,8.1176,8.1536,8.1537,0,0,0,8.0398,8.0391,8.0475,8.0592,8.0648,8.0628,8.065,8.0952,8.0983,8.1087,8.1122,8.1175,8.118,8.1534,8.1536,8.1557,0,0,0,8.0388,8.036,8.0468,8.0441,8.0642,8.0804,8.0659,8.0963,8.0998,8.112,8.1175,8.1183,8.1533,8.1535,8.1553,8.1575,0,0,0,8.0337,8.0355,8.0395,8.0438,8.0567,8.08,8.0849,8.0971,8.1019,8.117,8.1184,8.1532,8.1535,8.155,8.157,8.1658,0,0,0,8.027,8.0409,8.0395,8.0564,8.0564,8.081,8.0847,8.1033,8.1165,8.1177,8.1533,8.1536,8.1549,8.1566,8.1654,8.1723,8.1747,0,0,8.0419,8.0425,8.0529,8.0525,8.0761,8.0767,8.1008,8.1174,8.1232,8.1432,8.1442,8.1555,8.1569,8.1657,8.1899,8.1918,0,0,0,8.056,8.0634,8.0707,8.083,8.0961,8.1075,8.1209,8.1272,8.1444,8.1325,8.1612,8.1622,8.1675,8.171,8.1727,8.1776,8.155,8.155,8.155,8.0703,8.077,8.0947,8.1051,8.1171,8.1309,8.1413,8.1521,8.1553,8.162,8.1679,8.1818,8.1858,8.1871,8.1921,8.1722,8.1722,8.1722,8.1722,8.0928,8.1044,8.1085,8.1271,8.1342,8.15,8.164,8.1658,8.1816,8.1778,8.1829,8.1782,8.1889,8.1937,8.1724,8.1724,8.1723,8.1723,8.1723,8.1029,8.1096,8.117,8.1357,8.1494,8.1596,8.1746,8.1805,8.1862,8.1912,8.1983,8.1983,8.1991,8.1942,8.1942,8.1943,8.1943,8.1944,8.1944,8.1105,8.1187,8.1306,8.1457,8.1545,8.1669,8.1812,8.1901,8.2015,8.2047,8.2048,8.2074,8.1887,8.1838,8.1952,8.195,8.1949,8.1949,8.1948,8.1308,8.1272,8.1455,8.1544,8.1728,8.1861,8.1936,8.2113,8.2195,8.2268,8.2285,8.2137,8.2147,8.2135,8.2096,8.2269,8.2269,8.2269,8.2269,8.1394,8.1405,8.1607,8.1745,8.1887,8.1974,8.2181,8.2294,8.2405,8.2461,8.2445,8.2398,8.2383,8.2403,8.2385,8.2349,8.2583,8.2583,8.2583,8.1523,8.1552,8.1715,8.1823,8.1972,8.2099,8.2297,8.2455,8.2574,8.2597,8.2507,8.2493,8.2418,8.239,8.2409,8.238,8.2316,0,0]}]]